Location: Amsterdam
(30.7274°N, 84.4357°W)
Time: 02:24:31
(UTC+00:00)

Tiros 1 - Pass Details

Date: 23 February 2026
Orbit: 618 x 649 km, 48.4° (Epoch: 13 March)

Event Time Altitude Azimuth Distance (km) Brightness Sun altitude
Rises 13:15:36 0° 282° (WNW) 2,921 9.9 12.7°
Reaches altitude 10° 13:19:02 10° 308° (NW) 2,007 9.2 13.4°
Maximum altitude 13:21:25 14° 339° (NNW) 1,759 9.1 13.8°
Drops below altitude 10° 13:23:48 10° 11° (N) 1,998 9.6 14.3°
Sets 13:27:13 0° 37° (NE) 2,899 10.7 15.0°
